Year,Month,Day,Hour,Minute,Value (Times are PST for temperature in C)
2007,08,15,00,00,13.50
2007,08,15,00,01,13.40
2007,08,15,00,02,13.40
2007,08,15,00,03,13.40
2007,08,15,00,04,13.40
2007,08,15,00,05,13.40
2007,08,15,00,06,13.40
2007,08,15,00,07,13.30
2007,08,15,00,08,13.30
2007,08,15,00,09,13.30
2007,08,15,00,10,13.30
2007,08,15,00,11,13.30
2007,08,15,00,12,13.30
2007,08,15,00,13,13.30
2007,08,15,00,14,13.30
2007,08,15,00,15,13.30
2007,08,15,00,16,13.30
2007,08,15,00,17,13.30
2007,08,15,00,18,13.30
2007,08,15,00,19,13.30
2007,08,15,00,20,13.20
2007,08,15,00,21,13.20
2007,08,15,00,22,13.20
2007,08,15,00,23,13.20
2007,08,15,00,24,13.20
2007,08,15,00,25,13.20
2007,08,15,00,26,13.20
2007,08,15,00,27,13.20
2007,08,15,00,28,13.20
2007,08,15,00,29,13.10
2007,08,15,00,30,13.10
2007,08,15,00,31,13.10
2007,08,15,00,32,13.10
2007,08,15,00,33,13.10
2007,08,15,00,34,13.10
2007,08,15,00,35,13.10
2007,08,15,00,36,13.00
2007,08,15,00,37,13.00
2007,08,15,00,38,13.00
2007,08,15,00,39,13.00
2007,08,15,00,40,13.00
2007,08,15,00,41,13.00
2007,08,15,00,42,13.00
2007,08,15,00,43,12.90
2007,08,15,00,44,12.90
2007,08,15,00,45,12.90
2007,08,15,00,46,12.90
2007,08,15,00,47,12.90
2007,08,15,00,48,12.90
2007,08,15,00,49,12.90
2007,08,15,00,50,12.90
2007,08,15,00,51,12.90
2007,08,15,00,52,12.90
2007,08,15,00,53,12.90
2007,08,15,00,54,12.90
2007,08,15,00,55,12.90
2007,08,15,00,56,12.90
2007,08,15,00,57,12.90
2007,08,15,00,58,12.80
2007,08,15,00,59,12.80
2007,08,15,01,00,12.80
2007,08,15,01,01,12.80
2007,08,15,01,02,12.80
2007,08,15,01,03,12.80
2007,08,15,01,04,12.80
2007,08,15,01,05,12.80
2007,08,15,01,06,12.70
2007,08,15,01,07,12.70
2007,08,15,01,08,12.70
2007,08,15,01,09,12.70
2007,08,15,01,10,12.70
2007,08,15,01,11,12.70
2007,08,15,01,12,12.70
2007,08,15,01,13,12.70
2007,08,15,01,14,12.70
2007,08,15,01,15,12.70
2007,08,15,01,16,12.70
2007,08,15,01,17,12.60
2007,08,15,01,18,12.60
2007,08,15,01,19,12.60
2007,08,15,01,20,12.60
2007,08,15,01,21,12.60
2007,08,15,01,22,12.60
2007,08,15,01,23,12.60
2007,08,15,01,24,12.50
2007,08,15,01,25,12.50
2007,08,15,01,26,12.50
2007,08,15,01,27,12.50
2007,08,15,01,28,12.40
2007,08,15,01,29,12.40
2007,08,15,01,30,12.40
2007,08,15,01,31,12.40
2007,08,15,01,32,12.40
2007,08,15,01,33,12.40
2007,08,15,01,34,12.30
2007,08,15,01,35,12.30
2007,08,15,01,36,12.30
2007,08,15,01,37,12.30
2007,08,15,01,38,12.30
2007,08,15,01,39,12.30
2007,08,15,01,40,12.30
2007,08,15,01,41,12.30
2007,08,15,01,42,12.20
2007,08,15,01,43,12.20
2007,08,15,01,44,12.20
2007,08,15,01,45,12.20
2007,08,15,01,46,12.20
2007,08,15,01,47,12.20
2007,08,15,01,48,12.20
2007,08,15,01,49,12.10
2007,08,15,01,50,12.10
2007,08,15,01,51,12.10
2007,08,15,01,52,12.10
2007,08,15,01,53,12.10
2007,08,15,01,54,12.10
2007,08,15,01,55,12.00
2007,08,15,01,56,12.00
2007,08,15,01,57,12.00
2007,08,15,01,58,11.90
2007,08,15,01,59,11.90
2007,08,15,02,00,11.90
2007,08,15,02,01,11.90
2007,08,15,02,02,11.90
2007,08,15,02,03,11.90
2007,08,15,02,04,11.80
2007,08,15,02,05,11.80
2007,08,15,02,06,11.80
2007,08,15,02,07,11.80
2007,08,15,02,08,11.80
2007,08,15,02,09,11.80
2007,08,15,02,10,11.80
2007,08,15,02,11,11.70
2007,08,15,02,12,11.70
2007,08,15,02,13,11.70
2007,08,15,02,14,11.70
2007,08,15,02,15,11.70
2007,08,15,02,16,11.70
2007,08,15,02,17,11.60
2007,08,15,02,18,11.60
2007,08,15,02,19,11.60
2007,08,15,02,20,11.60
2007,08,15,02,21,11.60
2007,08,15,02,22,11.60
2007,08,15,02,23,11.60
2007,08,15,02,24,11.60
2007,08,15,02,25,11.60
2007,08,15,02,26,11.60
2007,08,15,02,27,11.50
2007,08,15,02,28,11.50
2007,08,15,02,29,11.50
2007,08,15,02,30,11.50
2007,08,15,02,31,11.50
2007,08,15,02,32,11.50
2007,08,15,02,33,11.50
2007,08,15,02,34,11.40
2007,08,15,02,35,11.40
2007,08,15,02,36,11.40
2007,08,15,02,37,11.40
2007,08,15,02,38,11.40
2007,08,15,02,39,11.40
2007,08,15,02,40,11.40
2007,08,15,02,41,11.40
2007,08,15,02,42,11.40
2007,08,15,02,43,11.40
2007,08,15,02,44,11.40
2007,08,15,02,45,11.30
2007,08,15,02,46,11.30
2007,08,15,02,47,11.30
2007,08,15,02,48,11.30
2007,08,15,02,49,11.30
2007,08,15,02,50,11.30
2007,08,15,02,51,11.30
2007,08,15,02,52,11.30
2007,08,15,02,53,11.30
2007,08,15,02,54,11.30
2007,08,15,02,55,11.30
2007,08,15,02,56,11.30
2007,08,15,02,57,11.30
2007,08,15,02,58,11.30
2007,08,15,02,59,11.30
2007,08,15,03,00,11.30
2007,08,15,03,01,11.30
2007,08,15,03,02,11.30
2007,08,15,03,03,11.30
2007,08,15,03,04,11.30
2007,08,15,03,05,11.30
2007,08,15,03,06,11.30
2007,08,15,03,07,11.20
2007,08,15,03,08,11.20
2007,08,15,03,09,11.20
2007,08,15,03,10,11.20
2007,08,15,03,11,11.20
2007,08,15,03,12,11.20
2007,08,15,03,13,11.20
2007,08,15,03,14,11.20
2007,08,15,03,15,11.20
2007,08,15,03,16,11.10
2007,08,15,03,17,11.10
2007,08,15,03,18,11.10
2007,08,15,03,19,11.10
2007,08,15,03,20,11.10
2007,08,15,03,21,11.10
2007,08,15,03,22,11.10
2007,08,15,03,23,11.10
2007,08,15,03,24,11.10
2007,08,15,03,25,11.10
2007,08,15,03,26,11.10
2007,08,15,03,27,11.10
2007,08,15,03,28,11.10
2007,08,15,03,29,11.00
2007,08,15,03,30,11.00
2007,08,15,03,31,11.00
2007,08,15,03,32,11.00
2007,08,15,03,33,11.00
2007,08,15,03,34,11.00
2007,08,15,03,35,11.00
2007,08,15,03,36,11.00
2007,08,15,03,37,11.00
2007,08,15,03,38,11.00
2007,08,15,03,39,10.90
2007,08,15,03,40,10.90
2007,08,15,03,41,10.90
2007,08,15,03,42,10.90
2007,08,15,03,43,10.90
2007,08,15,03,44,10.90
2007,08,15,03,45,10.90
2007,08,15,03,46,10.90
2007,08,15,03,47,10.90
2007,08,15,03,48,10.90
2007,08,15,03,49,10.90
2007,08,15,03,50,10.90
2007,08,15,03,51,10.90
2007,08,15,03,52,10.90
2007,08,15,03,53,10.90
2007,08,15,03,54,10.90
2007,08,15,03,55,10.90
2007,08,15,03,56,10.90
2007,08,15,03,57,10.80
2007,08,15,03,58,10.80
2007,08,15,03,59,10.80
2007,08,15,04,00,10.80
2007,08,15,04,01,10.80
2007,08,15,04,02,10.80
2007,08,15,04,03,10.80
2007,08,15,04,04,10.80
2007,08,15,04,05,10.80
2007,08,15,04,06,10.70
2007,08,15,04,07,10.70
2007,08,15,04,08,10.70
2007,08,15,04,09,10.70
2007,08,15,04,10,10.70
2007,08,15,04,11,10.70
2007,08,15,04,12,10.70
2007,08,15,04,13,10.70
2007,08,15,04,14,10.70
2007,08,15,04,15,10.70
2007,08,15,04,16,10.70
2007,08,15,04,17,10.70
2007,08,15,04,18,10.70
2007,08,15,04,19,10.70
2007,08,15,04,20,10.70
2007,08,15,04,21,10.70
2007,08,15,04,22,10.70
2007,08,15,04,23,10.70
2007,08,15,04,24,10.70
2007,08,15,04,25,10.70
2007,08,15,04,26,10.70
2007,08,15,04,27,10.70
2007,08,15,04,28,10.60
2007,08,15,04,29,10.60
2007,08,15,04,30,10.60
2007,08,15,04,31,10.60
2007,08,15,04,32,10.60
2007,08,15,04,33,10.60
2007,08,15,04,34,10.60
2007,08,15,04,35,10.60
2007,08,15,04,36,10.60
2007,08,15,04,37,10.60
2007,08,15,04,38,10.60
2007,08,15,04,39,10.60
2007,08,15,04,40,10.60
2007,08,15,04,41,10.60
2007,08,15,04,42,10.50
2007,08,15,04,43,10.50
2007,08,15,04,44,10.50
2007,08,15,04,45,10.50
2007,08,15,04,46,10.50
2007,08,15,04,47,10.50
2007,08,15,04,48,10.50
2007,08,15,04,49,10.50
2007,08,15,04,50,10.50
2007,08,15,04,51,10.40
2007,08,15,04,52,10.40
2007,08,15,04,53,10.40
2007,08,15,04,54,10.40
2007,08,15,04,55,10.40
2007,08,15,04,56,10.40
2007,08,15,04,57,10.40
2007,08,15,04,58,10.40
2007,08,15,04,59,10.40
2007,08,15,05,00,10.40
2007,08,15,05,01,10.40
2007,08,15,05,02,10.40
2007,08,15,05,03,10.40
2007,08,15,05,04,10.40
2007,08,15,05,05,10.40
2007,08,15,05,06,10.40
2007,08,15,05,07,10.40
2007,08,15,05,08,10.30
2007,08,15,05,09,10.30
2007,08,15,05,10,10.30
2007,08,15,05,11,10.30
2007,08,15,05,12,10.30
2007,08,15,05,13,10.30
2007,08,15,05,14,10.30
2007,08,15,05,15,10.30
2007,08,15,05,16,10.30
2007,08,15,05,17,10.30
2007,08,15,05,18,10.30
2007,08,15,05,19,10.30
2007,08,15,05,20,10.30
2007,08,15,05,21,10.30
2007,08,15,05,22,10.30
2007,08,15,05,23,10.30
2007,08,15,05,24,10.30
2007,08,15,05,25,10.30
2007,08,15,05,26,10.30
2007,08,15,05,27,10.30
2007,08,15,05,28,10.30
2007,08,15,05,29,10.30
2007,08,15,05,30,10.30
2007,08,15,05,31,10.30
2007,08,15,05,32,10.20
2007,08,15,05,33,10.20
2007,08,15,05,34,10.20
2007,08,15,05,35,10.20
2007,08,15,05,36,10.20
2007,08,15,05,37,10.20
2007,08,15,05,38,10.20
2007,08,15,05,39,10.20
2007,08,15,05,40,10.20
2007,08,15,05,41,10.20
2007,08,15,05,42,10.20
2007,08,15,05,43,10.10
2007,08,15,05,44,10.10
2007,08,15,05,45,10.10
2007,08,15,05,46,10.10
2007,08,15,05,47,10.10
2007,08,15,05,48,10.10
2007,08,15,05,49,10.10
2007,08,15,05,50,10.10
2007,08,15,05,51,10.10
2007,08,15,05,52,10.10
2007,08,15,05,53,10.00
2007,08,15,05,54,10.00
2007,08,15,05,55,10.00
2007,08,15,05,56,10.00
2007,08,15,05,57,10.00
2007,08,15,05,58,10.00
2007,08,15,05,59,10.00
2007,08,15,06,00,9.90
2007,08,15,06,01,9.90
2007,08,15,06,02,9.90
2007,08,15,06,03,9.90
2007,08,15,06,04,9.90
2007,08,15,06,05,9.90
2007,08,15,06,06,9.90
2007,08,15,06,07,9.90
2007,08,15,06,08,9.90
2007,08,15,06,09,9.90
2007,08,15,06,10,9.90
2007,08,15,06,11,9.90
2007,08,15,06,12,9.90
2007,08,15,06,13,9.90
2007,08,15,06,14,9.90
2007,08,15,06,15,9.90
2007,08,15,06,16,9.90
2007,08,15,06,17,9.90
2007,08,15,06,18,9.90
2007,08,15,06,19,9.90
2007,08,15,06,20,9.90
2007,08,15,06,21,9.90
2007,08,15,06,22,9.90
2007,08,15,06,23,9.90
2007,08,15,06,24,9.90
2007,08,15,06,25,9.90
2007,08,15,06,26,9.90
2007,08,15,06,27,9.90
2007,08,15,06,28,9.90
2007,08,15,06,29,9.90
2007,08,15,06,30,9.90
2007,08,15,06,31,9.90
2007,08,15,06,32,9.80
2007,08,15,06,33,9.80
2007,08,15,06,34,9.80
2007,08,15,06,35,9.80
2007,08,15,06,36,9.80
2007,08,15,06,37,9.80
2007,08,15,06,38,9.80
2007,08,15,06,39,9.80
2007,08,15,06,40,9.80
2007,08,15,06,41,9.80
2007,08,15,06,42,9.80
2007,08,15,06,43,9.80
2007,08,15,06,44,9.80
2007,08,15,06,45,9.80
2007,08,15,06,46,9.80
2007,08,15,06,47,9.80
2007,08,15,06,48,9.80
2007,08,15,06,49,9.80
2007,08,15,06,50,9.80
2007,08,15,06,51,9.80
2007,08,15,06,52,9.80
2007,08,15,06,53,9.80
2007,08,15,06,54,9.80
2007,08,15,06,55,9.80
2007,08,15,06,56,9.80
2007,08,15,06,57,9.80
2007,08,15,06,58,9.90
2007,08,15,06,59,9.90
2007,08,15,07,00,9.90
2007,08,15,07,01,9.90
2007,08,15,07,02,9.90
2007,08,15,07,03,9.90
2007,08,15,07,04,9.90
2007,08,15,07,05,9.90
2007,08,15,07,06,9.90
2007,08,15,07,07,9.90
2007,08,15,07,08,9.90
2007,08,15,07,09,9.90
2007,08,15,07,10,9.90
2007,08,15,07,11,9.90
2007,08,15,07,12,9.90
2007,08,15,07,13,9.90
2007,08,15,07,14,10.00
2007,08,15,07,15,10.00
2007,08,15,07,16,10.00
2007,08,15,07,17,10.00
2007,08,15,07,18,10.00
2007,08,15,07,19,10.10
2007,08,15,07,20,10.10
2007,08,15,07,21,10.10
2007,08,15,07,22,10.10
2007,08,15,07,23,10.20
2007,08,15,07,24,10.20
2007,08,15,07,25,10.20
2007,08,15,07,26,10.20
2007,08,15,07,27,10.20
2007,08,15,07,28,10.30
2007,08,15,07,29,10.30
2007,08,15,07,30,10.30
2007,08,15,07,31,10.30
2007,08,15,07,32,10.30
2007,08,15,07,33,10.40
2007,08,15,07,34,10.40
2007,08,15,07,35,10.50
2007,08,15,07,36,10.60
2007,08,15,07,37,10.60
2007,08,15,07,38,10.70
2007,08,15,07,39,10.70
2007,08,15,07,40,10.70
2007,08,15,07,41,10.70
2007,08,15,07,42,10.70
2007,08,15,07,43,10.80
2007,08,15,07,44,10.80
2007,08,15,07,45,10.80
2007,08,15,07,46,10.80
2007,08,15,07,47,10.80
2007,08,15,07,48,10.90
2007,08,15,07,49,10.90
2007,08,15,07,50,11.00
2007,08,15,07,51,11.00
2007,08,15,07,52,11.10
2007,08,15,07,53,11.20
2007,08,15,07,54,11.20
2007,08,15,07,55,11.30
2007,08,15,07,56,11.40
2007,08,15,07,57,11.40
2007,08,15,07,58,11.50
2007,08,15,07,59,11.60
2007,08,15,08,00,11.60
2007,08,15,08,01,11.60
2007,08,15,08,02,11.70
2007,08,15,08,03,11.70
2007,08,15,08,04,11.80
2007,08,15,08,05,11.80
2007,08,15,08,06,11.90
2007,08,15,08,07,12.00
2007,08,15,08,08,12.10
2007,08,15,08,09,12.10
2007,08,15,08,10,12.20
2007,08,15,08,11,12.30
2007,08,15,08,12,12.30
2007,08,15,08,13,12.40
2007,08,15,08,14,12.50
2007,08,15,08,15,12.60
2007,08,15,08,16,12.70
2007,08,15,08,17,12.80
2007,08,15,08,18,12.90
2007,08,15,08,19,13.00
2007,08,15,08,20,13.10
2007,08,15,08,21,13.20
2007,08,15,08,22,13.30
2007,08,15,08,23,13.30
2007,08,15,08,24,13.40
2007,08,15,08,25,13.50
2007,08,15,08,26,13.60
2007,08,15,08,27,13.70
2007,08,15,08,28,13.70
2007,08,15,08,29,13.80
2007,08,15,08,30,13.80
2007,08,15,08,31,13.90
2007,08,15,08,32,13.90
2007,08,15,08,33,14.00
2007,08,15,08,34,14.10
2007,08,15,08,35,14.20
2007,08,15,08,36,14.30
2007,08,15,08,37,14.50
2007,08,15,08,38,14.60
2007,08,15,08,39,14.70
2007,08,15,08,40,14.90
2007,08,15,08,41,15.00
2007,08,15,08,42,15.00
2007,08,15,08,43,15.20
2007,08,15,08,44,15.30
2007,08,15,08,45,15.40
2007,08,15,08,46,15.50
2007,08,15,08,47,15.60
2007,08,15,08,48,15.60
2007,08,15,08,49,15.70
2007,08,15,08,50,15.70
2007,08,15,08,51,15.70
2007,08,15,08,52,15.80
2007,08,15,08,53,15.80
2007,08,15,08,54,15.80
2007,08,15,08,55,15.90
2007,08,15,08,56,15.90
2007,08,15,08,57,16.00
2007,08,15,08,58,16.10
2007,08,15,08,59,16.10
2007,08,15,09,00,16.20
2007,08,15,09,01,16.30
2007,08,15,09,02,16.40
2007,08,15,09,03,16.50
2007,08,15,09,04,16.70
2007,08,15,09,05,16.80
2007,08,15,09,06,17.00
2007,08,15,09,07,17.10
2007,08,15,09,08,17.20
2007,08,15,09,09,17.30
2007,08,15,09,10,17.40
2007,08,15,09,11,17.50
2007,08,15,09,12,17.60
2007,08,15,09,13,17.70
2007,08,15,09,14,17.80
2007,08,15,09,15,17.90
2007,08,15,09,16,17.90
2007,08,15,09,17,18.00
2007,08,15,09,18,18.10
2007,08,15,09,19,18.10
2007,08,15,09,20,18.20
2007,08,15,09,21,18.20
2007,08,15,09,22,18.30
2007,08,15,09,23,18.30
2007,08,15,09,24,18.40
2007,08,15,09,25,18.40
2007,08,15,09,26,18.50
2007,08,15,09,27,18.60
2007,08,15,09,28,18.70
2007,08,15,09,29,18.70
2007,08,15,09,30,18.80
2007,08,15,09,31,18.90
2007,08,15,09,32,19.00
2007,08,15,09,33,19.10
2007,08,15,09,34,19.20
2007,08,15,09,35,19.30
2007,08,15,09,36,19.40
2007,08,15,09,37,19.50
2007,08,15,09,38,19.60
2007,08,15,09,39,19.70
2007,08,15,09,40,19.70
2007,08,15,09,41,19.80
2007,08,15,09,42,19.90
2007,08,15,09,43,20.00
2007,08,15,09,44,20.00
2007,08,15,09,45,20.10
2007,08,15,09,46,20.10
2007,08,15,09,47,20.10
2007,08,15,09,48,20.10
2007,08,15,09,49,20.20
2007,08,15,09,50,20.20
2007,08,15,09,51,20.30
2007,08,15,09,52,20.30
2007,08,15,09,53,20.40
2007,08,15,09,54,20.50
2007,08,15,09,55,20.70
2007,08,15,09,56,20.80
2007,08,15,09,57,20.90
2007,08,15,09,58,21.10
2007,08,15,09,59,21.20
2007,08,15,10,00,21.30
2007,08,15,10,01,21.40
2007,08,15,10,02,21.50
2007,08,15,10,03,21.50
2007,08,15,10,04,21.60
2007,08,15,10,05,21.50
2007,08,15,10,06,21.50
2007,08,15,10,07,21.40
2007,08,15,10,08,21.40
2007,08,15,10,09,21.40
2007,08,15,10,10,21.50
2007,08,15,10,11,21.50
2007,08,15,10,12,21.60
2007,08,15,10,13,21.70
2007,08,15,10,14,21.70
2007,08,15,10,15,21.60
2007,08,15,10,16,21.60
2007,08,15,10,17,21.60
2007,08,15,10,18,21.60
2007,08,15,10,19,21.60
2007,08,15,10,20,21.60
2007,08,15,10,21,21.70
2007,08,15,10,22,21.80
2007,08,15,10,23,21.80
2007,08,15,10,24,21.80
2007,08,15,10,25,21.90
2007,08,15,10,26,21.90
2007,08,15,10,27,21.90
2007,08,15,10,28,22.00
2007,08,15,10,29,22.00
2007,08,15,10,30,22.10
2007,08,15,10,31,22.10
2007,08,15,10,32,22.20
2007,08,15,10,33,22.20
2007,08,15,10,34,22.20
2007,08,15,10,35,22.30
2007,08,15,10,36,22.30
2007,08,15,10,37,22.40
2007,08,15,10,38,22.40
2007,08,15,10,39,22.30
2007,08,15,10,40,22.30
2007,08,15,10,41,22.40
2007,08,15,10,42,22.40
2007,08,15,10,43,22.50
2007,08,15,10,44,22.60
2007,08,15,10,45,22.70
2007,08,15,10,46,22.80
2007,08,15,10,47,22.80
2007,08,15,10,48,22.80
2007,08,15,10,49,22.90
2007,08,15,10,50,23.00
2007,08,15,10,51,23.00
2007,08,15,10,52,23.10
2007,08,15,10,53,23.10
2007,08,15,10,54,23.20
2007,08,15,10,55,23.30
2007,08,15,10,56,23.40
2007,08,15,10,57,23.40
2007,08,15,10,58,23.50
2007,08,15,10,59,23.60
2007,08,15,11,00,23.60
2007,08,15,11,01,23.60
2007,08,15,11,02,23.60
2007,08,15,11,03,23.50
2007,08,15,11,04,23.50
2007,08,15,11,05,23.60
2007,08,15,11,06,23.60
2007,08,15,11,07,23.60
2007,08,15,11,08,23.60
2007,08,15,11,09,23.60
2007,08,15,11,10,23.70
2007,08,15,11,11,23.70
2007,08,15,11,12,23.70
2007,08,15,11,13,23.80
2007,08,15,11,14,23.90
2007,08,15,11,15,23.90
2007,08,15,11,16,24.00
2007,08,15,11,17,24.10
2007,08,15,11,18,24.10
2007,08,15,11,19,24.10
2007,08,15,11,20,24.10
2007,08,15,11,21,24.00
2007,08,15,11,22,24.00
2007,08,15,11,23,24.00
2007,08,15,11,24,24.00
2007,08,15,11,25,24.10
2007,08,15,11,26,24.20
2007,08,15,11,27,24.30
2007,08,15,11,28,24.40
2007,08,15,11,29,24.50
2007,08,15,11,30,24.60
2007,08,15,11,31,24.70
2007,08,15,11,32,24.70
2007,08,15,11,33,24.70
2007,08,15,11,34,24.70
2007,08,15,11,35,24.70
2007,08,15,11,36,24.80
2007,08,15,11,37,24.80
2007,08,15,11,38,24.80
2007,08,15,11,39,24.90
2007,08,15,11,40,25.00
2007,08,15,11,41,25.10
2007,08,15,11,42,25.20
2007,08,15,11,43,25.20
2007,08,15,11,44,25.30
2007,08,15,11,45,25.30
2007,08,15,11,46,25.40
2007,08,15,11,47,25.40
2007,08,15,11,48,25.50
2007,08,15,11,49,25.50
2007,08,15,11,50,25.60
2007,08,15,11,51,25.70
2007,08,15,11,52,25.80
2007,08,15,11,53,25.90
2007,08,15,11,54,25.90
2007,08,15,11,55,26.00
2007,08,15,11,56,26.10
2007,08,15,11,57,26.20
2007,08,15,11,58,26.20
2007,08,15,11,59,26.20
2007,08,15,12,00,26.30
2007,08,15,12,01,26.30
2007,08,15,12,02,26.40
2007,08,15,12,03,26.40
2007,08,15,12,04,26.40
2007,08,15,12,05,26.50
2007,08,15,12,06,26.50
2007,08,15,12,07,26.40
2007,08,15,12,08,26.30
2007,08,15,12,09,26.20
2007,08,15,12,10,26.20
2007,08,15,12,11,26.20
2007,08,15,12,12,26.10
2007,08,15,12,13,26.10
2007,08,15,12,14,26.10
2007,08,15,12,15,26.10
2007,08,15,12,16,26.20
2007,08,15,12,17,26.20
2007,08,15,12,18,26.10
2007,08,15,12,19,26.10
2007,08,15,12,20,26.10
2007,08,15,12,21,26.10
2007,08,15,12,22,26.10
2007,08,15,12,23,26.10
2007,08,15,12,24,26.10
2007,08,15,12,25,26.20
2007,08,15,12,26,26.20
2007,08,15,12,27,26.20
2007,08,15,12,28,26.30
2007,08,15,12,29,26.30
2007,08,15,12,30,26.30
2007,08,15,12,31,26.30
2007,08,15,12,32,26.30
2007,08,15,12,33,26.30
2007,08,15,12,34,26.40
2007,08,15,12,35,26.40
2007,08,15,12,36,26.50
2007,08,15,12,37,26.60
2007,08,15,12,38,26.60
2007,08,15,12,39,26.60
2007,08,15,12,40,26.60
2007,08,15,12,41,26.60
2007,08,15,12,42,26.70
2007,08,15,12,43,26.70
2007,08,15,12,44,26.80
2007,08,15,12,45,26.90
2007,08,15,12,46,27.00
2007,08,15,12,47,27.10
2007,08,15,12,48,27.20
2007,08,15,12,49,27.30
2007,08,15,12,50,27.30
2007,08,15,12,51,27.30
2007,08,15,12,52,27.40
2007,08,15,12,53,27.50
2007,08,15,12,54,27.50
2007,08,15,12,55,27.60
2007,08,15,12,56,27.60
2007,08,15,12,57,27.60
2007,08,15,12,58,27.60
2007,08,15,12,59,27.60
2007,08,15,13,00,27.60
2007,08,15,13,01,27.70
2007,08,15,13,02,27.70
2007,08,15,13,03,27.70
2007,08,15,13,04,27.70
2007,08,15,13,05,27.70
2007,08,15,13,06,27.60
2007,08,15,13,07,27.60
2007,08,15,13,08,27.60
2007,08,15,13,09,27.70
2007,08,15,13,10,27.70
2007,08,15,13,11,27.70
2007,08,15,13,12,27.80
2007,08,15,13,13,27.80
2007,08,15,13,14,27.70
2007,08,15,13,15,27.70
2007,08,15,13,16,27.70
2007,08,15,13,17,27.70
2007,08,15,13,18,27.70
2007,08,15,13,19,27.80
2007,08,15,13,20,27.80
2007,08,15,13,21,27.70
2007,08,15,13,22,27.70
2007,08,15,13,23,27.70
2007,08,15,13,24,27.70
2007,08,15,13,25,27.70
2007,08,15,13,26,27.70
2007,08,15,13,27,27.80
2007,08,15,13,28,27.80
2007,08,15,13,29,27.80
2007,08,15,13,30,27.80
2007,08,15,13,31,27.80
2007,08,15,13,32,27.90
2007,08,15,13,33,27.90
2007,08,15,13,34,27.90
2007,08,15,13,35,27.90
2007,08,15,13,36,27.90
2007,08,15,13,37,28.00
2007,08,15,13,38,28.10
2007,08,15,13,39,28.20
2007,08,15,13,40,28.30
2007,08,15,13,41,28.30
2007,08,15,13,42,28.30
2007,08,15,13,43,28.30
2007,08,15,13,44,28.30
2007,08,15,13,45,28.30
2007,08,15,13,46,28.30
2007,08,15,13,47,28.30
2007,08,15,13,48,28.30
2007,08,15,13,49,28.40
2007,08,15,13,50,28.40
2007,08,15,13,51,28.50
2007,08,15,13,52,28.50
2007,08,15,13,53,28.60
2007,08,15,13,54,28.70
2007,08,15,13,55,28.70
2007,08,15,13,56,28.80
2007,08,15,13,57,28.80
2007,08,15,13,58,28.90
2007,08,15,13,59,28.90
2007,08,15,14,00,29.00
2007,08,15,14,01,28.90
2007,08,15,14,02,28.90
2007,08,15,14,03,28.90
2007,08,15,14,04,28.90
2007,08,15,14,05,29.00
2007,08,15,14,06,29.00
2007,08,15,14,07,29.10
2007,08,15,14,08,29.10
2007,08,15,14,09,29.10
2007,08,15,14,10,29.10
2007,08,15,14,11,29.20
2007,08,15,14,12,29.20
2007,08,15,14,13,29.20
2007,08,15,14,14,29.30
2007,08,15,14,15,29.30
2007,08,15,14,16,29.30
2007,08,15,14,17,29.30
2007,08,15,14,18,29.40
2007,08,15,14,19,29.30
2007,08,15,14,20,29.30
2007,08,15,14,21,29.20
2007,08,15,14,22,29.20
2007,08,15,14,23,29.20
2007,08,15,14,24,29.20
2007,08,15,14,25,29.10
2007,08,15,14,26,29.10
2007,08,15,14,27,29.10
2007,08,15,14,28,29.20
2007,08,15,14,29,29.20
2007,08,15,14,30,29.30
2007,08,15,14,31,29.30
2007,08,15,14,32,29.30
2007,08,15,14,33,29.40
2007,08,15,14,34,29.40
2007,08,15,14,35,29.50
2007,08,15,14,36,29.60
2007,08,15,14,37,29.60
2007,08,15,14,38,29.50
2007,08,15,14,39,29.50
2007,08,15,14,40,29.50
2007,08,15,14,41,29.50
2007,08,15,14,42,29.60
2007,08,15,14,43,29.60
2007,08,15,14,44,29.60
2007,08,15,14,45,29.60
2007,08,15,14,46,29.70
2007,08,15,14,47,29.70
2007,08,15,14,48,29.80
2007,08,15,14,49,29.80
2007,08,15,14,50,29.90
2007,08,15,14,51,30.00
2007,08,15,14,52,30.10
2007,08,15,14,53,30.10
2007,08,15,14,54,30.20
2007,08,15,14,55,30.20
2007,08,15,14,56,30.20
2007,08,15,14,57,30.10
2007,08,15,14,58,30.00
2007,08,15,14,59,29.90
2007,08,15,15,00,29.90
2007,08,15,15,01,29.90
2007,08,15,15,02,29.80
2007,08,15,15,03,29.80
2007,08,15,15,04,29.80
2007,08,15,15,05,29.80
2007,08,15,15,06,29.80
2007,08,15,15,07,29.90
2007,08,15,15,08,29.90
2007,08,15,15,09,29.90
2007,08,15,15,10,29.90
2007,08,15,15,11,29.90
2007,08,15,15,12,29.90
2007,08,15,15,13,29.90
2007,08,15,15,14,29.90
2007,08,15,15,15,29.80
2007,08,15,15,16,29.70
2007,08,15,15,17,29.70
2007,08,15,15,18,29.50
2007,08,15,15,19,29.50
2007,08,15,15,20,29.40
2007,08,15,15,21,29.30
2007,08,15,15,22,29.30
2007,08,15,15,23,29.30
2007,08,15,15,24,29.30
2007,08,15,15,25,29.20
2007,08,15,15,26,29.20
2007,08,15,15,27,29.30
2007,08,15,15,28,29.30
2007,08,15,15,29,29.30
2007,08,15,15,30,29.40
2007,08,15,15,31,29.50
2007,08,15,15,32,29.60
2007,08,15,15,33,29.70
2007,08,15,15,34,29.80
2007,08,15,15,35,29.80
2007,08,15,15,36,29.80
2007,08,15,15,37,29.80
2007,08,15,15,38,29.80
2007,08,15,15,39,29.80
2007,08,15,15,40,29.70
2007,08,15,15,41,29.70
2007,08,15,15,42,29.60
2007,08,15,15,43,29.60
2007,08,15,15,44,29.70
2007,08,15,15,45,29.70
2007,08,15,15,46,29.70
2007,08,15,15,47,29.70
2007,08,15,15,48,29.70
2007,08,15,15,49,29.80
2007,08,15,15,50,29.80
2007,08,15,15,51,29.80
2007,08,15,15,52,29.80
2007,08,15,15,53,29.80
2007,08,15,15,54,29.80
2007,08,15,15,55,29.80
2007,08,15,15,56,29.80
2007,08,15,15,57,29.90
2007,08,15,15,58,29.90
2007,08,15,15,59,29.90
2007,08,15,16,00,29.90
2007,08,15,16,01,29.90
2007,08,15,16,02,29.90
2007,08,15,16,03,29.90
2007,08,15,16,04,30.00
2007,08,15,16,05,30.00
2007,08,15,16,06,30.20
2007,08,15,16,07,30.20
2007,08,15,16,08,30.20
2007,08,15,16,09,30.30
2007,08,15,16,10,30.30
2007,08,15,16,11,30.30
2007,08,15,16,12,30.30
2007,08,15,16,13,30.30
2007,08,15,16,14,30.40
2007,08,15,16,15,30.40
2007,08,15,16,16,30.50
2007,08,15,16,17,30.60
2007,08,15,16,18,30.80
2007,08,15,16,19,30.80
2007,08,15,16,20,30.80
2007,08,15,16,21,30.80
2007,08,15,16,22,30.70
2007,08,15,16,23,30.60
2007,08,15,16,24,30.60
2007,08,15,16,25,30.60
2007,08,15,16,26,30.60
2007,08,15,16,27,30.60
2007,08,15,16,28,30.60
2007,08,15,16,29,30.60
2007,08,15,16,30,30.50
2007,08,15,16,31,30.40
2007,08,15,16,32,30.40
2007,08,15,16,33,30.40
2007,08,15,16,34,30.50
2007,08,15,16,35,30.50
2007,08,15,16,36,30.50
2007,08,15,16,37,30.40
2007,08,15,16,38,30.50
2007,08,15,16,39,30.60
2007,08,15,16,40,30.70
2007,08,15,16,41,30.80
2007,08,15,16,42,30.80
2007,08,15,16,43,30.70
2007,08,15,16,44,30.60
2007,08,15,16,45,30.60
2007,08,15,16,46,30.60
2007,08,15,16,47,30.50
2007,08,15,16,48,30.50
2007,08,15,16,49,30.40
2007,08,15,16,50,30.40
2007,08,15,16,51,30.40
2007,08,15,16,52,30.40
2007,08,15,16,53,30.30
2007,08,15,16,54,30.30
2007,08,15,16,55,30.30
2007,08,15,16,56,30.30
2007,08,15,16,57,30.30
2007,08,15,16,58,30.30
2007,08,15,16,59,30.30
2007,08,15,17,00,30.30
2007,08,15,17,01,30.20
2007,08,15,17,02,30.20
2007,08,15,17,03,30.20
2007,08,15,17,04,30.20
2007,08,15,17,05,30.20
2007,08,15,17,06,30.20
2007,08,15,17,07,30.20
2007,08,15,17,08,30.20
2007,08,15,17,09,30.20
2007,08,15,17,10,30.20
2007,08,15,17,11,30.20
2007,08,15,17,12,30.20
2007,08,15,17,13,30.20
2007,08,15,17,14,30.20
2007,08,15,17,15,30.20
2007,08,15,17,16,30.20
2007,08,15,17,17,30.20
2007,08,15,17,18,30.20
2007,08,15,17,19,30.20
2007,08,15,17,20,30.10
2007,08,15,17,21,30.10
2007,08,15,17,22,30.10